Regional Weather Roundup
Issued by NWS Northern Indiana

Home | Current Version | Previous Version | Graphics & Text | Print | Product List | Glossary On
Versions: 1 2 3 4 5 6 7 8 9 10 11 12 13 14 15 16 17 18 19 20 21 22 23 24 25 26 27 28 29 30 31 32 33 34 35 36 37 38 39 40 41 42 43 44 45 46 47 48 49 50
000
ASUS43 KIWX 221410
RWRIWX

KIWX WEATHER ROUNDUP
NATIONAL WEATHER SERVICE NORTHERN INDIANA
1000 AM EDT FRI MAY 22 2015

NOTE: "FAIR" INDICATES FEW OR NO CLOUDS BELOW 12,000 FEET WITH NO
SIGNIFICANT WEATHER AND/OR OBSTRUCTIONS TO VISIBILITY.

* THESE STATIONS ARE NOT UNDER NWS QUALITY CONTROL. THEY ALSO MAY NOT
  REPORT WEATHER SUCH AS PRECIPITATION OR FOG.

INZ001>027-221500-
NORTHERN INDIANA

CITY           SKY/WX    TMP DP  RH WIND       PRES   REMARKS
GARY*          SUNNY     57  46  67 N8        30.19R
VALPARAISO     SUNNY     61  47  59 E5        30.17R
MICHIGAN CITY* SUNNY     61  41  48 NE6       30.18R
LAPORTE*       SUNNY     62  47  59 E7        30.18R
KNOX*          SUNNY     59  43  55 NE3       30.16S
SOUTH BEND     SUNNY     61  33  35 E8        30.19R
ELKHART*       SUNNY     59  36  41 E7        30.19R
GOSHEN         SUNNY     59  36  42 E9        30.17R
MONTICELLO*    SUNNY     59  48  66 CALM      30.17R
LOGANSPORT*    SUNNY     57  45  62 W5        30.18R
ROCHESTER*     SUNNY     61  46  59 N3        30.17R
WARSAW*        SUNNY     59  46  63 E6        30.17R
ANGOLA*        SUNNY     57  43  58 NE8       30.17R
FORT WAYNE     SUNNY     60  46  59 N7        30.18R
HUNTINGTON*    SUNNY     58  46  63 N3        30.17R
PERU/GRISSOM   SUNNY     59  48  66 W8        30.16R
MARION*        SUNNY     57  44  61 W8        30.18R

$$
INZ028>050-221500-
CENTRAL INDIANA

CITY           SKY/WX    TMP DP  RH WIND       PRES   REMARKS
LAFAYETTE      SUNNY     59  48  67 W6        30.18R
KOKOMO*        SUNNY     61  46  59 W9        30.17R
MUNCIE*        SUNNY     59  46  62 W8        30.18R
INDIANAPOLIS   SUNNY     60  45  57 SW12      30.18R

$$
MIZ043>046-050>051-056>058-064>065-071>073-077>080-221500-
SOUTHWEST LOWER MICHIGAN

CITY           SKY/WX    TMP DP  RH WIND       PRES   REMARKS
BATTLE CREEK   SUNNY     57  23  26 NE8       30.19R
BENTON HARBOR  SUNNY     57  37  47 NE7       30.18R
COLDWATER*     SUNNY     55  29  37 NE6       30.18R
HILLSDALE*     SUNNY     57  24  27 N6        30.17R
HOLLAND        SUNNY     58  27  30 E7        30.21R
GRAND RAPIDS   SUNNY     57  27  31 N6        30.19R
KALAMAZOO      SUNNY     58  22  24 NE9G16    30.19R
STURGIS*       SUNNY     57  28  33 NE7       30.18R
THREE RIVERS*  FAIR      57  32  39 NE5       30.19R

$$
OHZ001>008-015>018-024>025-221500-
NORTHWEST OHIO

CITY           SKY/WX    TMP DP  RH WIND       PRES   REMARKS
WAUSEON*       FAIR      59  21  23 N10       30.17R
DEFIANCE       SUNNY     61  31  32 N7        30.17R
FINDLAY        SUNNY     60  42  51 NW8       30.16R
TOLEDO EXPRESS SUNNY     57  29  34 NW9       30.16R
TOLEDO METCALF MOSUNNY   60  30  32 N7        30.17R
LIMA           SUNNY     58  44  60 NW9       30.17R

$$
AND FOR LAKE MICHIGAN COASTAL AND OPEN LAKE BUOY OBSERVATIONS

STATION/POSITION TEMP    WIND        PRES    VSBY  WAVE
                 AIR SEA DIR/SP/G                  HT/PER
                 (F)     (DEG/KT/KT) (MB)    (MI)  (FT/S)
CALUMET HARBOR    51     340/  7/  9   N/A
MICHIGAN CITY     57      40/  6/  8   N/A
BURNS HARBOR      51     340/  6/  7 1022.4R
SAINT JOSEPH      58      10/  5/  8 1022.4R
SOUTH LAKE BUOY   40 38  350/  8/  8 1023.7R         1
4 MI NW BRIDGMAN  56 53  110/  8/ 10   N/A           1
MICHIGAN CITY     51 51   20/  6/  8   N/A           1
MICHIGAN CITY CG     57              1023.2      6   1

$$
&&


USA.gov is the U.S. government's official web portal to all federal, state and local government web resources and services.